Location: La Comballaz
(46.3780°N, 7.0817°E)
Time: 11:10:37
(UTC+00:00)

IGS 5A - Pass Details

Date: 09 April 2020
Orbit: 585 x 587 km, 97.6° (Epoch: 19 May)

Event Time Altitude Azimuth Distance (km) Brightness Sun altitude
Exits shadow 20:20:36 48° 77° (ENE) 774 3.7 -20.8°
Maximum altitude 20:20:42 48° 72° (ENE) 773 3.8 -20.8°
Drops below altitude 10° 20:24:42 10° 358° (N) 1,920 6.6 -21.4°
Sets 20:26:55 0° 353° (N) 2,825 7.6 -21.7°
